Weather History for Warsaw, IN

Change the Weather History Date:

Friday, March 15, 2013

  Actual Average Record
Temperature  
Mean Temperature 37 °F -  
Max Temperature 44 °F 46 °F 78 °F (2012)
Min Temperature 30 °F 27 °F 8 °F (1993)
Degree Days  
Heating Degree Days 28    
Moisture  
Dew Point 33 °F    
Average Humidity 86    
Maximum Humidity 100    
Minimum Humidity 61    
Precipitation  
Precipitation 0.23 in - - ()
Sea Level Pressure  
Sea Level Pressure 29.94 in    
Wind  
Wind Speed 6 mph (WSW)    
Max Wind Speed 9 mph    
Max Gust Speed -    
Visibility 6 miles    
Events Rain    
Averages and records for this station are not official NWS values.
T = Trace of Precipitation, MM = Missing Value Source: NWS Daily Summary

Daily Weather History Graph

Daily Weather History Graph

Search for Another Location

Airport:

Trip Planner

Search our weather history database for the weather conditions in past years. The results will help you decide how hot, cold, wet, or windy it might be!

Date:

Astronomy

Mar. 15, 2013 Rise Set
Actual Time 7:54 AM EDT 7:50 PM EDT
Civil Twilight 7:27 AM EDT 8:17 PM EDT
Nautical Twilight 6:55 AM EDT 8:49 PM EDT
Astronomical Twilight 6:22 AM EDT 9:22 PM EDT
Moon 9:41 AM EDT (3/15) No Moon Set
Length of Visible Light 12h 50m
Length of Day
11h 55m
Waxing Crescent, 15% of the Moon is Illuminated
Mar 15
Waxing Crescent
Mar 19
First Quarter
Mar 27
Full
Apr 3
Last Quarter
Apr 10
New

Hourly Weather History & Observations

Time (EDT) Temp. Windchill Dew Point Humidity Pressure Visibility Wind Dir Wind Speed Gust Speed Precip Events Conditions
12:15 AM 32.0 °F 24.8 °F 30.2 °F 93% 30.13 in 10.0 mi WSW 8.1 mph - N/A   Clear
12:35 AM 32.0 °F 24.8 °F 30.2 °F 93% 30.12 in 10.0 mi WSW 8.1 mph - N/A   Clear
12:55 AM 32.0 °F 27.5 °F 30.2 °F 93% 30.11 in 10.0 mi SW 4.6 mph - N/A   Clear
1:15 AM 32.0 °F 25.6 °F 30.2 °F 93% 30.12 in 10.0 mi WSW 6.9 mph - N/A   Clear
1:35 AM 32.0 °F 26.4 °F 30.2 °F 93% 30.11 in 7.0 mi WSW 5.8 mph - N/A   Scattered Clouds
1:55 AM 32.0 °F 27.5 °F 30.2 °F 93% 30.10 in 7.0 mi SW 4.6 mph - N/A   Overcast
2:15 AM 32.0 °F 26.4 °F 30.2 °F 93% 30.10 in 7.0 mi WSW 5.8 mph - N/A   Overcast
2:35 AM 32.0 °F 26.4 °F 30.2 °F 93% 30.09 in 7.0 mi SW 5.8 mph - N/A   Overcast
2:55 AM 32.0 °F 25.6 °F 30.2 °F 93% 30.09 in 7.0 mi SW 6.9 mph - N/A   Overcast
3:15 AM 32.0 °F 28.7 °F 30.2 °F 93% 30.08 in 7.0 mi WSW 3.5 mph - N/A   Mostly Cloudy
3:35 AM 32.0 °F 28.7 °F 30.2 °F 93% 30.07 in 5.0 mi SW 3.5 mph - N/A   Scattered Clouds
4:15 AM 32.0 °F 28.7 °F 30.2 °F 93% 30.05 in 5.0 mi SW 3.5 mph - N/A   Clear
4:35 AM 32.0 °F 27.5 °F 30.2 °F 93% 30.04 in 5.0 mi SW 4.6 mph - N/A   Clear
4:55 AM 32.0 °F 26.4 °F 30.2 °F 93% 30.04 in 7.0 mi SW 5.8 mph - N/A   Clear
5:15 AM 32.0 °F 25.6 °F 30.2 °F 93% 30.02 in 7.0 mi SW 6.9 mph - N/A   Clear
5:35 AM 32.0 °F 24.8 °F 30.2 °F 93% 30.01 in 7.0 mi SW 8.1 mph - N/A   Clear
5:55 AM 32.0 °F 25.6 °F 28.4 °F 87% 30.00 in 7.0 mi SW 6.9 mph - N/A   Clear
6:15 AM 32.0 °F 25.6 °F 28.4 °F 87% 30.00 in 7.0 mi SW 6.9 mph - N/A   Clear
6:35 AM 32.0 °F 26.4 °F 28.4 °F 87% 30.00 in 7.0 mi SW 5.8 mph - N/A   Clear
6:55 AM 30.2 °F 24.3 °F 28.4 °F 93% 29.99 in 7.0 mi SW 5.8 mph - N/A   Clear
7:15 AM 30.2 °F 25.4 °F 28.4 °F 93% 29.97 in 5.0 mi SW 4.6 mph - N/A   Clear
7:35 AM 30.2 °F 22.6 °F 28.4 °F 93% 29.98 in 5.0 mi SW 8.1 mph - N/A   Clear
7:55 AM 30.2 °F 22.6 °F 28.4 °F 93% 29.98 in 5.0 mi WSW 8.1 mph - N/A   Clear
8:15 AM 30.2 °F 24.3 °F 28.4 °F 93% 29.98 in 5.0 mi WSW 5.8 mph - N/A   Clear
8:35 AM 30.2 °F 25.4 °F 28.4 °F 93% 29.98 in 4.0 mi WSW 4.6 mph - N/A   Clear
8:55 AM 32.0 °F 25.6 °F 28.4 °F 87% 29.97 in 4.0 mi SW 6.9 mph - N/A   Clear
9:15 AM 32.0 °F 27.5 °F 30.2 °F 93% 29.97 in 5.0 mi SW 4.6 mph - N/A   Clear
9:35 AM 32.0 °F 26.4 °F 30.2 °F 93% 29.97 in 5.0 mi WSW 5.8 mph - N/A   Clear
9:55 AM 32.0 °F 26.4 °F 30.2 °F 93% 29.95 in 5.0 mi SW 5.8 mph - N/A   Clear
10:15 AM 33.8 °F 27.7 °F 30.2 °F 87% 29.95 in 7.0 mi WSW 6.9 mph - N/A   Clear
10:35 AM 33.8 °F 27.0 °F 32.0 °F 93% 29.95 in 7.0 mi WSW 8.1 mph - N/A   Clear
10:55 AM 35.6 °F 28.6 °F 32.0 °F 87% 29.95 in 7.0 mi West 9.2 mph - N/A   Clear
11:55 AM 37.4 °F 32.8 °F 32.0 °F 81% 29.94 in 7.0 mi WSW 5.8 mph - N/A   Clear
12:15 PM 37.4 °F 32.8 °F 32.0 °F 81% 29.94 in 7.0 mi West 5.8 mph - N/A   Clear
12:35 PM 39.2 °F 35.0 °F 32.0 °F 75% 29.93 in 10.0 mi West 5.8 mph - N/A   Clear
12:55 PM 41.0 °F 38.0 °F 32.0 °F 70% 29.93 in 10.0 mi SW 4.6 mph - N/A   Clear
1:15 PM 41.0 °F 35.8 °F 32.0 °F 70% 29.92 in 10.0 mi West 8.1 mph - N/A   Clear
1:35 PM 41.0 °F 36.4 °F 32.0 °F 70% 29.91 in 7.0 mi WSW 6.9 mph - N/A   Clear
1:55 PM 42.8 °F 38.6 °F 32.0 °F 66% 29.91 in 7.0 mi SW 6.9 mph - N/A   Clear
2:15 PM 42.8 °F 38.6 °F 32.0 °F 66% 29.91 in 10.0 mi SW 6.9 mph - N/A   Clear
2:35 PM 44.6 °F 43.1 °F 32.0 °F 61% 29.90 in 10.0 mi West 3.5 mph - N/A   Clear
2:55 PM 44.6 °F 40.7 °F 32.0 °F 61% 29.90 in 10.0 mi West 6.9 mph - N/A   Clear
3:15 PM 44.6 °F 40.7 °F 33.8 °F 66% 29.89 in 10.0 mi WSW 6.9 mph - N/A   Clear
3:35 PM 44.6 °F 40.2 °F 33.8 °F 66% 29.88 in 10.0 mi WSW 8.1 mph - N/A   Clear
3:55 PM 44.6 °F 40.2 °F 33.8 °F 66% 29.87 in 10.0 mi West 8.1 mph - N/A   Clear
4:15 PM 44.6 °F 39.7 °F 33.8 °F 66% 29.88 in 10.0 mi WSW 9.2 mph - N/A   Mostly Cloudy
4:35 PM 44.6 °F 40.2 °F 33.8 °F 66% 29.87 in 10.0 mi West 8.1 mph - N/A   Light Drizzle
4:55 PM 44.6 °F 41.4 °F 35.6 °F 71% 29.87 in 7.0 mi West 5.8 mph - N/A Rain Light Rain
5:15 PM 44.6 °F - 35.6 °F 71% 29.86 in 10.0 mi Calm Calm - N/A Rain Light Rain
5:35 PM 44.6 °F 43.1 °F 35.6 °F 71% 29.86 in 10.0 mi West 3.5 mph - N/A Rain Light Rain
5:55 PM 44.6 °F 42.2 °F 37.4 °F 76% 29.86 in 7.0 mi WSW 4.6 mph - N/A Rain Light Rain
6:15 PM 42.8 °F 39.3 °F 37.4 °F 81% 29.86 in 5.0 mi WSW 5.8 mph - N/A Rain Light Rain
6:35 PM 42.8 °F 41.1 °F 37.4 °F 81% 29.86 in 5.0 mi WSW 3.5 mph - 0.01 in Rain Rain
6:55 PM 42.8 °F 40.1 °F 39.2 °F 87% 29.86 in 4.0 mi WSW 4.6 mph - 0.03 in Rain Light Rain
7:15 PM 41.0 °F 39.0 °F 39.2 °F 93% 29.86 in 3.0 mi SW 3.5 mph - 0.01 in Rain Light Rain
7:35 PM 41.0 °F - 39.2 °F 93% 29.85 in 2.5 mi Calm Calm - 0.04 in Rain Rain
7:55 PM 41.0 °F - 41.0 °F 100% 29.85 in 1.5 mi Calm Calm - 0.06 in Rain Rain
8:15 PM 41.0 °F - 41.0 °F 100% 29.86 in 2.5 mi Calm Calm - 0.02 in Rain Rain
8:35 PM 41.0 °F - 41.0 °F 100% 29.85 in 2.5 mi Calm Calm - 0.04 in Rain Rain
8:55 PM 41.0 °F - 39.2 °F 93% 29.83 in 2.0 mi Calm Calm - 0.05 in Rain Rain
9:15 PM 41.0 °F - 41.0 °F 100% 29.83 in 1.5 mi Calm Calm - 0.04 in Rain Rain
9:35 PM 41.0 °F - 41.0 °F 100% 29.82 in 2.5 mi Calm Calm - 0.06 in Rain Rain
9:55 PM 41.0 °F 39.0 °F 39.2 °F 93% 29.81 in 2.5 mi SSE 3.5 mph - 0.08 in Rain Light Rain
10:15 PM 41.0 °F - 39.2 °F 93% 29.80 in 3.0 mi Calm Calm - 0.01 in Rain Light Rain
10:35 PM 41.0 °F 39.0 °F 39.2 °F 93% 29.79 in 4.0 mi SE 3.5 mph - 0.01 in Rain Light Rain
10:55 PM 41.0 °F - 37.4 °F 87% 29.79 in 4.0 mi Calm Calm - 0.01 in   Light Drizzle
11:15 PM 41.0 °F 39.0 °F 39.2 °F 93% 29.80 in 4.0 mi WSW 3.5 mph - N/A   Overcast
11:35 PM 41.0 °F 38.0 °F 37.4 °F 87% 29.81 in 4.0 mi WSW 4.6 mph - N/A   Overcast
11:55 PM 41.0 °F 39.0 °F 39.2 °F 93% 29.80 in 3.0 mi WSW 3.5 mph - N/A   Overcast